Location: Detroit
(42.3310°N, 83.0460°W)
Time: 21:30:46
(UTC-05:00)

Tiros 1 - Visible Passes

Search period start: 22 February 2024 00:00
Search period end: 03 March 2024 00:00
Orbit: 625 x 658 km, 48.4° (Epoch: 22 February)

Date Brightness Start Highest point End Pass type
(mag) Time Alt. Az. Time Alt. Az. Time Alt. Az.
22 Feb 8.8 04:59:17 23° SSE 04:59:17 23° SSE 05:01:16 10° SSE visible
23 Feb 9.2 05:23:14 14° S 05:23:14 14° S 05:24:19 10° S visible
24 Feb 9.4 19:54:18 10° SSE 19:54:37 11° SSE 19:54:37 11° SSE visible
25 Feb 8.8 20:16:36 10° SSW 20:18:46 22° S 20:18:46 22° S visible
26 Feb 9.1 19:01:34 10° SSE 19:03:29 12° SE 19:05:14 10° ESE visible
26 Feb 8.4 20:40:09 10° SW 20:42:50 32° SSW 20:42:50 32° SSW visible
27 Feb 8.3 19:23:23 10° SSW 19:27:20 26° SE 19:29:10 21° ESE visible
27 Feb 8.8 21:04:19 10° WSW 21:06:46 30° WSW 21:06:46 30° WSW visible
28 Feb 7.4 19:46:45 10° SW 19:51:23 52° SE 19:53:00 35° E visible
28 Feb 9.4 21:28:51 10° W 21:30:35 22° W 21:30:35 22° W visible
29 Feb 7.1 20:10:50 10° WSW 20:15:36 87° NNW 20:16:42 54° ENE visible
29 Feb 10.0 21:53:33 10° W 21:54:16 14° WNW 21:54:16 14° WNW visible
01 Mar 7.6 18:53:24 10° SW 18:57:56 46° SE 19:02:30 10° ENE visible
01 Mar 7.6 20:35:19 10° W 20:40:01 56° NNW 20:40:17 55° N visible
02 Mar 7.1 19:17:21 10° WSW 19:22:07 86° SSE 19:26:13 14° ENE visible
02 Mar 8.3 21:00:00 10° W 21:03:47 39° NW 21:03:47 39° NW visible
